This is the latest recevied weather packets stored in our database for station/object SQ5AAG-2. If no packets are shown the sender has not sent any weather packets the latest 10 day(s).
| Time | Temp. | Humidity | Pressure | Rain* | Wind** | Luminosity | Snow |
|---|---|---|---|---|---|---|---|
| 1787826398 | 24.44° C | 46% | 1009.3 hPa | 0 mm | - | - | - |
| 1787826284 | 21.67° C | 51% | 1009.5 hPa | 0 mm | - | - | - |
| 1787825918 | 21.67° C | 53% | 1009.5 hPa | 0 mm | - | - | - |
| 1787825797 | 24.44° C | 45% | 1009.4 hPa | 0 mm | - | - | - |
| 1787825582 | 21.67° C | 53% | 1009.4 hPa | 0 mm | - | - | - |
| 1787825497 | 24.44° C | 45% | 1009.5 hPa | 0 mm | - | - | - |
| 1787825197 | 24.44° C | 46% | 1009.3 hPa | 0 mm | - | - | - |
| 1787825177 | 21.11° C | 53% | 1009.2 hPa | 0 mm | - | - | - |
| 1787824903 | 23.89° C | 47% | 1009.4 hPa | 0 mm | - | - | - |
| 1787824766 | 21.11° C | 54% | 1009.3 hPa | 0 mm | - | - | - |
| 1787824597 | 23.33° C | 49% | 1009.2 hPa | 0 mm | - | - | - |
| 1787824296 | 22.78° C | 50% | 1009.3 hPa | 0 mm | - | - | - |
| 1787824091 | 21.11° C | 55% | 1009.3 hPa | 0 mm | - | - | - |
| 1787823996 | 22.78° C | 50% | 1009.3 hPa | 0 mm | - | - | - |
| 1787823695 | 22.78° C | 50% | 1009.6 hPa | 0 mm | - | - | - |
| 1787823655 | 20.56° C | 56% | 1009.5 hPa | 0 mm | - | - | - |
| 1787823395 | 22.22° C | 50% | 1009.4 hPa | 0 mm | - | - | - |
| 1787823238 | 20.56° C | 56% | 1009.4 hPa | 0 mm | - | - | - |
| 1787823096 | 22.22° C | 49% | 1009.3 hPa | 0 mm | - | - | - |
| 1787822829 | 22.22° C | 50% | 1009.4 hPa | 0 mm | - | - | - |
| 1787822802 | 20.56° C | 58% | 1009.4 hPa | 0 mm | - | - | - |
| 1787822794 | 22.22° C | 50% | 1009.4 hPa | 0 mm | - | - | - |
| 1787822496 | 22.22° C | 51% | 1009.3 hPa | 0 mm | - | - | - |
| 1787822467 | 20.56° C | 57% | 1009.4 hPa | 0 mm | - | - | - |
| 1787822194 | 21.67° C | 52% | 1009.3 hPa | 0 mm | - | - | - |
* Rain latest hour (hover to see other rain measurements)
** Current wind speed in m/s (hover to see current wind gust speed)